Tracking 18647 objects as of 29-May-2017
HD Live streaming from Space Station
objects crossing your sky now

SL-12 R/B(2)

Track SL-12 R/B(2) now!


NORAD ID: 24919
Int'l Code: 1997-046D
Perigee: 8,398.4 km
Apogee: 35,991.0 km
Inclination: 14.4 °
Period: 800.8 minutes
Semi major axis: 28565 km
RCS: 29.9426 m2 (large)
Launch date: August 28, 1997
Source: Commonwealth of Independent States (former USSR) (CIS)
Launch site: TYURATAM MISSILE AND SPACE COMPLEX (TTMTR)

Note: This is a ROCKET BODY
Your satellite tracking list
Your tracking list is empty





NASA's NSSDC Master Catalog

Two Line Element Set (TLE):
1 24919U 97046D   17147.42242457 -.00000120 +00000-0 +00000-0 0  9995
2 24919 014.3662 059.0779 4829670 160.3180 098.7895 01.79818805129646
Source of the keplerian elements: AFSPC